Location: Casteau
(50.5142°N, 4.0161°E)
Time: 15:24:57
(UTC+00:00)

Explorer 11/Cluster Stage 4 - Pass Details

Date: 10 August 2021
Orbit: 467 x 1256 km, 28.8° (Epoch: 23 September)

Event Time Altitude Azimuth Distance (km) Brightness Sun altitude
Rises 06:22:31 0° 219° (SW) 3,458 9.5 17.1°
Reaches altitude 10° 06:27:58 10° 180° (S) 2,768 9.4 18.0°
Maximum altitude 06:28:55 10° 172° (S) 2,785 9.5 18.1°
Drops below altitude 10° 06:29:54 10° 164° (SSE) 2,847 9.7 18.3°
Sets 06:36:07 0° 127° (SE) 4,018 11.0 19.3°
